Dewpoint
46 42 38 40 41 39 37 33 34 37 40 39 39 39 40 41 41 40 41 41 41 41 42 42 41 40 44 52 57 59 59 59 59 58 58 58 58 59 59 60 60 60 59 58
44 40 40 40 40 40 40 37 35 39 40 40 39 38 38 40 40 40 39 40 40 40 40 42 42 42 40 43 53 57 58 59 59 59 58 58 58 58 58 58 59 59 59 58
36 35 40 40 39 39 38 38 35 35 38 39 38 36 36 37 38 39 39 39 39 39 40 40 41 41 42 39 45 54 57 58 59 59 58 58 58 58 57 58 58 58 59 59
39 37 39 39 38 39 35 38 38 37 37 31 37 28 31 31 31 34 34 33 35 36 37 37 37 39 41 40 40 50 54 57 58 59 58 58 57 57 57 57 58 58 58 58
33 38 38 37 37 39 35 39 38 37 36 32 32 33 28 33 31 31 32 33 33 34 36 36 35 35 37 41 40 40 51 56 57 58 58 58 57 57 57 57 58 58 58 58
34 38 38 37 38 38 38 36 35 34 35 29 29 32 25 26 28 29 29 30 32 33 33 34 35 36 37 38 40 40 46 54 57 58 58 58 58 57 57 57 58 58 58 57
35 35 36 37 35 37 37 33 26 20 26 21 27 29 27 29 31 31 31 33 33 35 34 34 33 34 37 38 39 40 48 54 56 57 58 58 58 58 58 58 58 57 58 58
27 26 34 35 33 33 34 33 25 18 16 18 28 25 25 33 34 34 34 34 32 33 34 34 33 32 34 37 40 41 41 50 55 57 57 58 59 59 58 58 58 58 58 58
27 25 33 34 33 32 32 32 32 25 19 20 24 25 25 27 25 25 26 28 31 33 35 34 33 33 34 34 35 36 40 44 48 55 57 57 58 59 58 59 59 59 58 58
27 24 27 33 33 33 33 34 29 28 20 18 23 23 22 24 24 26 23 31 33 35 35 33 33 34 33 33 33 34 35 37 38 40 43 50 57 58 59 59 59 59 59 59
26 21 23 31 30 30 31 30 29 27 24 17 15 16 24 23 24 23 26 31 35 37 32 32 32 32 31 30 31 32 32 36 34 34 37 40 44 51 58 58 59 59 59 59
31 25 21 25 27 30 31 29 29 25 20 25 24 18 24 27 24 26 30 33 35 31 30 29 29 32 30 29 28 29 31 33 33 32 34 35 38 40 45 52 58 59 59 59
31 27 13 18 21 26 27 29 30 30 26 22 21 18 20 23 25 28 30 30 29 28 26 26 26 26 27 27 25 26 28 31 31 30 33 34 36 39 39 41 44 50 56 59
35 27 22 16 16 23 24 26 28 29 24 23 22 21 22 23 25 29 29 28 26 25 24 22 22 23 24 25 23 23 25 29 29 28 31 33 35 37 37 39 41 45 48 52
32 24 25 22 20 20 23 24 27 28 27 24 22 23 24 27 29 27 24 23 22 21 20 20 19 20 22 22 21 21 23 26 26 27 31 31 34 34 34 36 37 39 42 48
31 27 26 23 25 26 25 25 27 26 27 28 26 26 27 27 26 22 20 19 18 19 18 17 17 17 20 19 19 21 20 25 24 27 29 30 31 31 32 33 34 35 37 40
30 28 23 20 25 25 23 24 26 26 28 27 26 26 24 24 25 22 18 16 15 16 15 14 15 16 18 17 17 19 20 21 23 26 26 28 27 27 29 30 31 33 34 36
30 30 28 19 21 19 21 20 24 25 25 27 24 22 22 21 21 19 16 14 13 14 12 13 14 15 15 15 17 17 17 19 21 20 24 23 23 25 26 27 29 30 33 34
30 31 26 21 12 17 20 17 17 22 19 23 21 19 18 18 21 18 14 12 12 11 12 13 14 13 13 14 15 14 15 16 16 18 19 19 21 23 23 24 26 29 32 34
31 32 29 17 18 12 17 17 23 11 12 19 19 17 16 17 21 22 11 10 9 11 12 11 12 11 12 13 12 12 12 13 14 15 15 17 19 20 20 21 25 29 31 33
29 30 27 21 18 15 19 21 23 11 13 17 16 15 13 15 14 11 9 7 9 10 9 10 10 9 10 11 11 11 11 11 12 13 13 15 15 16 18 20 24 28 31 32
25 25 26 20 19 17 18 22 16 15 17 15 12 10 10 9 7 6 6 6 7 7 7 8 8 8 8 9 9 9 9 10 10 11 11 11 13 15 17 20 23 28 31 31
22 24 23 22 21 12 11 13 12 15 13 10 9 7 6 5 4 4 6 6 6 6 7 7 7 7 6 7 7 7 7 8 9 9 8 10 12 15 17 19 21 25 30 31
22 23 23 21 15 10 8 8 8 9 8 6 5 5 4 3 4 5 5 5 5 6 6 7 6 6 6 7 7 6 7 8 6 6 8 10 12 13 16 18 20 23 27 30
24 26 22 16 11 9 8 7 6 5 5 4 4 4 2 3 4 4 4 5 4 5 6 7 5 4 4 5 5 5 5 6 6 7 7 9 10 13 15 16 17 20 24 27
18 22 23 21 15 15 11 7 5 4 3 3 3 2 3 3 2 3 3 3 4 4 5 4 4 3 2 2 2 2 2 5 4 4 6 8 10 10 12 13 14 18 21 24
Lifted_Index
5 5 6 6 5 5 6 6 6 6 5 5 6 7 7 7 7 7 7 6 6 5 5 5 4 5 5 5 4 3 2 1 1 1 1 1 1 2 2 2 3 2 3 3
5 6 6 5 5 5 6 6 6 5 5 5 6 7 7 7 8 8 7 7 6 5 5 5 5 5 5 5 4 3 2 2 1 1 1 1 1 2 2 2 2 2 3 3
6 6 6 5 5 5 5 5 5 5 5 5 6 7 8 8 8 8 8 7 6 6 6 6 5 5 5 5 5 4 3 2 2 1 1 1 1 1 1 1 2 2 2 3
6 6 5 5 5 5 5 5 5 4 5 5 6 6 8 9 9 8 8 7 6 6 6 6 6 5 5 5 5 5 4 2 2 1 1 1 1 1 1 1 1 2 2 2
6 6 5 5 5 5 5 4 4 4 4 5 6 6 7 8 9 8 7 6 5 5 5 5 5 5 4 4 4 5 4 3 2 1 1 1 0 -0 -0 0 1 1 2 2
6 6 5 5 5 4 4 4 4 3 3 4 5 5 6 7 8 7 6 5 4 4 4 4 4 4 3 3 4 4 4 2 1 1 0 0 -0 -0 -1 -0 0 1 1 2
6 6 5 5 5 4 3 3 3 2 2 3 4 4 6 7 7 6 4 3 3 3 3 3 3 3 3 3 3 3 3 2 1 0 0 -0 -0 -1 -1 -1 -1 -0 0 1
5 5 5 5 4 3 2 2 2 1 1 2 3 4 5 6 6 4 3 3 3 2 2 3 3 3 3 3 3 3 3 3 2 1 0 -0 -0 -1 -1 -1 -1 -1 -1 -1
4 4 4 4 3 2 2 2 1 1 1 1 2 3 4 5 4 3 3 3 2 2 2 3 3 3 4 4 3 3 4 4 4 3 2 1 0 -0 -1 -1 -2 -1 -1 -1
3 3 3 2 1 1 1 1 1 1 1 1 2 3 3 4 3 3 2 2 3 3 2 3 3 4 4 4 4 3 4 4 4 4 4 4 2 1 -0 -1 -2 -2 -2 -2
2 2 2 2 1 1 1 1 1 1 1 1 1 2 3 3 3 3 2 3 3 3 3 3 3 3 4 4 4 4 4 4 4 5 5 5 5 4 2 0 -1 -2 -2 -2
2 2 2 2 2 1 1 1 1 1 1 1 1 2 3 3 3 2 2 3 3 4 4 4 3 3 4 4 4 4 4 5 5 5 5 5 5 5 4 3 1 -0 -1 -2
1 1 1 1 2 2 1 1 0 0 1 1 2 2 3 3 3 2 2 2 3 3 4 4 4 4 4 4 4 5 5 5 6 6 6 6 5 5 5 5 4 3 1 0
0 1 1 1 2 2 2 1 1 0 1 1 2 3 3 3 3 2 2 2 3 3 4 4 4 4 4 5 5 5 6 6 7 7 6 6 6 6 6 6 5 5 3 2
0 1 1 1 2 2 2 1 1 1 1 2 2 3 3 3 3 2 2 3 3 4 4 4 4 4 5 5 6 6 7 7 8 8 8 8 8 7 7 6 6 5 5 4
1 1 1 1 1 2 2 2 2 2 2 2 2 3 3 3 3 3 3 3 4 4 4 4 4 5 5 5 6 7 8 8 9 9 9 9 9 9 8 7 6 6 5 5
1 1 1 1 1 1 2 3 3 3 2 2 2 3 3 3 3 3 4 4 4 4 4 4 5 5 5 6 7 7 8 9 9 9 9 9 9 9 9 8 7 7 6 6
1 1 1 1 1 1 2 3 3 3 3 3 3 3 3 3 4 4 4 5 5 5 5 5 6 6 7 7 8 8 9 9 9 9 9 10 10 10 10 9 8 8 7 6
1 1 1 1 1 1 2 3 3 3 3 3 3 3 3 4 4 5 5 6 6 6 7 7 8 8 8 9 9 9 9 9 9 9 9 10 10 10 10 10 9 9 8 7
0 1 0 1 1 1 2 3 4 3 3 3 3 3 4 4 5 6 7 7 7 8 9 9 9 9 10 10 10 10 9 9 9 10 10 10 10 10 10 10 10 9 9 8
1 1 0 0 1 2 3 3 4 3 3 3 4 4 5 5 6 6 7 8 8 9 10 10 10 10 11 11 11 10 10 10 11 11 11 11 11 11 11 11 10 10 9 9
1 1 0 1 1 2 3 3 3 3 4 4 5 5 6 6 6 7 8 9 9 10 10 11 11 11 12 13 13 12 12 12 13 13 13 13 13 12 12 12 11 10 10 9
1 1 1 1 1 2 3 3 4 4 5 5 6 6 6 6 7 8 9 9 10 10 11 12 12 12 13 14 15 14 15 15 15 14 14 14 14 14 13 13 12 11 10 10
1 1 1 1 2 2 3 3 4 4 5 6 6 6 7 7 8 9 10 10 11 11 12 13 13 13 14 16 16 17 17 17 16 15 15 15 15 15 15 14 13 13 12 11
1 1 1 1 2 2 3 3 4 4 5 6 7 7 8 9 9 10 10 11 12 13 13 14 14 14 15 16 17 18 18 18 17 15 15 15 16 16 16 15 15 15 14 14
2 2 2 2 2 2 2 3 4 5 5 6 7 8 9 9 10 10 11 12 12 13 14 15 15 15 16 17 17 18 18 17 16 15 15 15 15 16 16 16 16 16 16 16